TimeCDT,TemperatureF,Dew PointF,Humidity,Sea Level PressureIn,VisibilityMPH,Wind Direction,Wind SpeedMPH,Gust SpeedMPH,PrecipitationIn,Events,Conditions,WindDirDegrees,DateUTC
12:15 AM,58.3,54.0,86,30.04,10.0,ENE,13.8,-,N/A,Thunderstorm,Thunderstorm,60,2013-06-19 05:15:00
12:35 AM,58.1,53.4,84,30.05,10.0,ENE,10.4,-,N/A,,Overcast,60,2013-06-19 05:35:00
12:55 AM,57.6,53.6,87,30.04,10.0,East,8.1,-,N/A,Thunderstorm,Mostly Cloudy,90,2013-06-19 05:55:00
1:15 AM,57.2,53.6,88,30.02,10.0,ESE,12.7,18.4,N/A,,Clear,120,2013-06-19 06:15:00
1:35 AM,57.4,54.1,89,30.01,10.0,ESE,13.8,-,N/A,,Clear,110,2013-06-19 06:35:00
1:55 AM,57.6,54.5,90,30.02,10.0,SE,10.4,-,N/A,,Clear,140,2013-06-19 06:55:00
2:15 AM,57.6,54.7,90,30.02,10.0,SSE,11.5,-,N/A,,Clear,150,2013-06-19 07:15:00
2:35 AM,57.2,54.1,89,30.01,10.0,SSE,12.7,17.3,N/A,,Clear,150,2013-06-19 07:35:00
2:55 AM,57.2,52.7,85,30.00,10.0,South,8.1,-,N/A,,Clear,180,2013-06-19 07:55:00
3:15 AM,57.9,51.8,80,29.98,10.0,SE,13.8,-,N/A,,Clear,140,2013-06-19 08:15:00
3:35 AM,57.4,51.8,82,29.98,10.0,SE,11.5,-,N/A,,Clear,140,2013-06-19 08:35:00
3:55 AM,57.4,52.9,85,30.00,10.0,South,11.5,-,N/A,,Clear,180,2013-06-19 08:55:00
4:15 AM,56.7,52.9,87,29.98,10.0,SSE,8.1,-,N/A,,Clear,160,2013-06-19 09:15:00
4:35 AM,56.1,52.7,88,30.00,10.0,South,6.9,-,N/A,,Clear,170,2013-06-19 09:35:00
4:55 AM,55.2,52.3,90,30.00,10.0,South,5.8,-,N/A,,Clear,170,2013-06-19 09:55:00
5:15 AM,55.0,51.4,88,29.98,10.0,South,5.8,-,N/A,,Clear,170,2013-06-19 10:15:00
5:35 AM,55.0,50.5,85,29.97,10.0,SSE,8.1,-,N/A,,Clear,150,2013-06-19 10:35:00
5:55 AM,56.1,50.2,80,29.97,10.0,SSE,10.4,-,N/A,,Clear,160,2013-06-19 10:55:00
6:15 AM,55.8,50.2,82,29.96,10.0,South,10.4,-,N/A,,Clear,180,2013-06-19 11:15:00
6:35 AM,55.8,50.0,81,29.95,10.0,South,12.7,-,N/A,,Clear,170,2013-06-19 11:35:00
6:55 AM,55.4,50.0,82,29.94,10.0,South,9.2,-,N/A,,Clear,170,2013-06-19 11:55:00
7:15 AM,55.6,50.4,83,29.94,10.0,South,8.1,-,N/A,,Clear,170,2013-06-19 12:15:00
7:35 AM,56.8,50.9,80,29.93,10.0,SSE,10.4,-,N/A,,Clear,160,2013-06-19 12:35:00
7:55 AM,58.5,51.8,79,29.93,10.0,South,12.7,-,N/A,,Clear,170,2013-06-19 12:55:00
8:15 AM,60.1,52.7,77,29.92,10.0,South,10.4,-,N/A,,Clear,180,2013-06-19 13:15:00
8:35 AM,63.5,54.5,72,29.92,10.0,South,16.1,19.6,N/A,,Clear,190,2013-06-19 13:35:00
8:55 AM,65.7,55.6,70,29.92,10.0,SSW,18.4,23.0,N/A,,Clear,210,2013-06-19 13:55:00
9:15 AM,67.5,56.5,68,29.91,10.0,SSW,19.6,23.0,N/A,,Clear,200,2013-06-19 14:15:00
9:35 AM,68.5,57.2,67,29.90,10.0,SSW,21.9,26.5,N/A,,Clear,200,2013-06-19 14:35:00
9:55 AM,69.6,57.4,65,29.89,10.0,South,18.4,27.6,N/A,,Clear,190,2013-06-19 14:55:00
10:15 AM,70.7,57.0,62,29.88,10.0,SSW,23.0,27.6,N/A,,Clear,200,2013-06-19 15:15:00
10:35 AM,71.4,56.7,60,29.89,10.0,SSW,18.4,26.5,N/A,,Clear,200,2013-06-19 15:35:00
10:55 AM,73.2,56.3,55,29.88,10.0,SSW,19.6,-,N/A,,Clear,200,2013-06-19 15:55:00
11:15 AM,74.7,55.4,51,29.88,10.0,SSW,20.7,24.2,N/A,,Clear,200,2013-06-19 16:15:00
11:35 AM,76.1,55.6,49,29.87,10.0,South,17.3,20.7,N/A,,Clear,180,2013-06-19 16:35:00
11:55 AM,76.3,55.0,48,29.87,10.0,South,17.3,20.7,N/A,,Clear,190,2013-06-19 16:55:00
12:15 PM,77.7,55.6,46,29.86,10.0,South,17.3,24.2,N/A,,Clear,180,2013-06-19 17:15:00
12:35 PM,78.4,55.0,44,29.86,10.0,South,16.1,23.0,N/A,,Clear,180,2013-06-19 17:35:00
12:55 PM,80.4,56.1,43,29.85,10.0,South,13.8,20.7,N/A,,Clear,170,2013-06-19 17:55:00
1:15 PM,81.9,54.9,39,29.85,10.0,SSE,16.1,24.2,N/A,,Clear,150,2013-06-19 18:15:00
1:35 PM,83.5,54.7,37,29.84,10.0,South,15.0,18.4,N/A,,Clear,170,2013-06-19 18:35:00
1:55 PM,83.8,53.6,35,29.83,10.0,SSE,13.8,24.2,N/A,,Clear,160,2013-06-19 18:55:00
2:35 PM,86.0,51.3,30,29.82,10.0,SSE,13.8,23.0,N/A,,Clear,160,2013-06-19 19:35:00
2:55 PM,86.9,50.5,28,29.81,10.0,SSE,17.3,23.0,N/A,,Clear,150,2013-06-19 19:55:00
3:15 PM,88.0,48.0,25,29.80,10.0,South,16.1,25.3,N/A,,Clear,180,2013-06-19 20:15:00
3:35 PM,88.9,46.8,23,29.80,10.0,SSE,16.1,21.9,N/A,,Clear,150,2013-06-19 20:35:00
3:55 PM,89.8,46.2,22,29.79,10.0,South,16.1,24.2,N/A,,Clear,180,2013-06-19 20:55:00
4:15 PM,91.0,40.1,17,29.78,10.0,SSE,17.3,24.2,N/A,,Clear,150,2013-06-19 21:15:00
4:35 PM,91.4,36.3,14,29.78,10.0,SSE,24.2,28.8,N/A,,Clear,150,2013-06-19 21:35:00
4:55 PM,92.1,32.2,12,29.77,10.0,SSE,19.6,28.8,N/A,,Clear,150,2013-06-19 21:55:00
5:15 PM,92.3,34.2,13,29.76,10.0,SSE,18.4,25.3,N/A,,Clear,150,2013-06-19 22:15:00
5:35 PM,92.1,30.2,11,29.75,10.0,SSE,16.1,23.0,N/A,,Clear,150,2013-06-19 22:35:00
5:55 PM,90.3,46.6,22,29.74,10.0,SSE,23.0,34.5,N/A,,Clear,150,2013-06-19 22:55:00
6:15 PM,89.6,45.7,22,29.74,10.0,SE,27.6,31.1,N/A,,Scattered Clouds,140,2013-06-19 23:15:00
6:35 PM,90.1,45.1,21,29.74,10.0,SE,28.8,35.7,N/A,,Clear,140,2013-06-19 23:35:00
6:55 PM,88.2,53.8,31,29.74,10.0,SSE,28.8,38.0,N/A,,Clear,150,2013-06-19 23:55:00
7:15 PM,87.4,52.3,30,29.74,10.0,SSE,29.9,35.7,N/A,,Clear,150,2013-06-20 00:15:00
7:35 PM,85.6,57.2,38,29.74,10.0,SSE,31.1,39.1,N/A,,Clear,150,2013-06-20 00:35:00
7:55 PM,84.2,57.9,41,29.74,10.0,SSE,29.9,40.3,N/A,,Clear,150,2013-06-20 00:55:00
8:15 PM,82.6,58.1,43,29.75,10.0,SSE,27.6,35.7,N/A,,Clear,150,2013-06-20 01:15:00
8:35 PM,81.5,57.9,44,29.75,10.0,SSE,29.9,35.7,N/A,,Clear,150,2013-06-20 01:35:00
8:55 PM,80.2,57.7,46,29.76,10.0,SE,24.2,32.2,N/A,,Clear,140,2013-06-20 01:55:00
9:15 PM,79.0,57.2,47,29.77,10.0,SE,23.0,31.1,N/A,,Clear,140,2013-06-20 02:15:00
9:35 PM,78.1,56.7,48,29.77,10.0,SSE,25.3,33.4,N/A,,Clear,150,2013-06-20 02:35:00
9:55 PM,77.7,55.8,47,29.77,10.0,SSE,23.0,29.9,N/A,,Clear,150,2013-06-20 02:55:00
10:15 PM,77.0,55.0,47,29.78,10.0,SSE,25.3,31.1,N/A,,Clear,150,2013-06-20 03:15:00
10:35 PM,76.5,55.0,47,29.78,10.0,SE,21.9,28.8,N/A,,Clear,140,2013-06-20 03:35:00
10:55 PM,75.2,58.1,55,29.78,10.0,SE,21.9,29.9,N/A,,Clear,140,2013-06-20 03:55:00
11:15 PM,75.0,55.9,51,29.79,10.0,SSE,26.5,36.8,N/A,Thunderstorm,Clear,160,2013-06-20 04:15:00
11:35 PM,75.2,57.7,54,29.79,10.0,SSE,27.6,41.4,N/A,,Clear,150,2013-06-20 04:35:00
11:55 PM,73.0,59.0,61,29.79,10.0,SSE,35.7,48.3,N/A,,Clear,160,2013-06-20 04:55:00